sat.trackr.live / text

‹ back to catalog

STARLINK-2432

NORAD 47840 · 2021-018BF

PAYLOAD ACTIVE UNKNOWN

§ Identity

Operator
Country
US
Launch date
2021-03-11
Launch site
AFETR
Launch vehicle
Mass (kg)
RCS (m²)

Purposes: comms

External: N2YO · Heavens-Above · Gunter

§ Orbital elements

Epoch: 2026-05-24T15:12:42.169824Z

Period
94.01 min
Inclination
53.1595°
Eccentricity
0.0001080
Mean motion
15.31720648 rev/d
Perigee alt
469.9 km
Apogee alt
471.4 km
Semi-major
6,848.8 km
B*
1.9730e-4
RAAN
245.9944°
Arg perigee
92.6707°
Mean anomaly
267.4419°
Rev number
28,839

§ Raw data

STARLINK-24321 47840U 21018BF  26144.63382141  .00005766  00000+0  19730-3 0  99962 47840  53.1595 245.9944 0001080  92.6707 267.4419 15.31720648288390

JSON: /api/v1/satellites/47840 · /tle

For live sub-satellite position, see the globe view (requires WebGL).

§ Visibility from observer

Set your observer location to see the next 7 days of passes ≥ 10°. The values pass through the URL so the page stays shareable.

No JS? Fill the form by hand. The geolocation button needs JavaScript.